Location: *
(49.6619°S, 177.4603°W)
Time: 05:18:10
(UTC+00:00)

Resurs 1-3 - Pass Details

Date: 31 January 2023
Orbit: 627 x 628 km, 97.8° (Epoch: 01 April)

Event Time Altitude Azimuth Distance (km) Brightness Sun altitude
Rises 08:38:47 0° 166° (SSE) 2,963 7.5 -9.2°
Reaches altitude 10° 08:41:00 10° 165° (SSE) 2,047 6.6 -9.5°
Maximum altitude 08:45:29 85° 75° (ENE) 649 3.6 -10.0°
Drops below altitude 10° 08:49:54 10° 347° (NNW) 2,020 5.9 -10.5°
Sets 08:52:05 0° 346° (NNW) 2,920 6.7 -10.8°
